Date String (YYYY-MM-DD hh:mm:ss) UTC,Instrument flags,absolute air pressure of the measurement (hPa),sample flow rate (lpm),inlet stack bypass flow (lpm),air temperature of the measurement (°C),ambient temperature measured by the external sensor (°C),aerosol sample conditioner tube jacket temperature (°C),OPC LED temperature (°C),internal box temperature (°C),relative humidity of the measurement (%),span deviation,mass concentration of particles derived from Lorenz-Mie calculation of OPC scattering (μg/m³),mass concentration of particles derived from Lorenz-Mie calculation of OPC scattering (μg/m³),mass concentration of particles derived from Lorenz-Mie calculation of OPC scattering (μg/m³)
DateTimeUTC,F1_M11,P_M11,Q1_M11,Q2_M11,T1_M11,T2_M11,T3_M11,T4_M11,T5_M11,U1_M11,ZSPAN_M11,X0_M11,X2_M11,X1_M11
2024-06-14 07:00:00,SystemResetWarning,0834.3,5.00,000.00,029.3,027.8,000.0,037.8,030.9,029.8,0000.0,0034.60,0007.32,0004.56
2024-06-14 07:01:00,SystemResetWarning,0834.3,5.00,000.00,029.3,028.1,000.0,037.7,031.0,029.9,0000.0,0035.20,0007.37,0004.57
2024-06-14 07:02:00,SystemResetWarning,0834.6,4.99,000.00,029.4,028.3,000.0,037.7,031.1,030.1,0000.0,0035.95,0007.42,0004.58
2024-06-14 07:03:00,SystemResetWarning,0834.3,5.00,000.00,029.4,028.5,000.0,037.7,031.2,030.0,0000.0,0035.08,0007.46,0004.60
2024-06-14 07:04:00,SystemResetWarning,0834.4,5.01,000.00,029.5,028.7,000.0,037.7,031.3,030.0,0000.0,0036.78,0007.48,0004.61
2024-06-14 07:05:00,SystemResetWarning,0834.4,5.00,000.00,029.5,028.8,000.0,037.8,031.3,030.0,0000.0,0036.26,0007.51,0004.61
2024-06-14 07:06:00,SystemResetWarning,0834.5,5.01,000.00,029.6,029.0,000.0,037.8,031.4,029.9,0000.0,0034.87,0007.53,0004.62
2024-06-14 07:07:00,SystemResetWarning,0834.3,5.01,000.00,029.7,029.1,000.0,037.8,031.5,030.2,0000.0,0035.56,0007.58,0004.63
2024-06-14 07:08:00,SystemResetWarning,0834.4,5.01,000.00,029.7,029.2,000.0,037.8,031.5,030.3,0000.0,0035.29,0007.62,0004.65
2024-06-14 07:09:00,SystemResetWarning,0834.4,5.00,000.00,029.8,029.3,000.0,037.9,031.6,030.8,0000.0,0034.68,0007.62,0004.66
2024-06-14 07:10:00,SystemResetWarning,0834.4,4.99,000.00,029.8,029.4,000.0,037.9,031.7,030.9,0000.0,0034.83,0007.62,0004.66
2024-06-14 07:11:00,SystemResetWarning,0834.4,5.00,000.00,029.9,029.4,000.0,037.9,031.7,031.0,0000.0,0034.20,0007.63,0004.66
2024-06-14 07:12:00,SystemResetWarning,0834.3,5.00,000.00,029.9,029.5,000.0,038.0,031.8,030.9,0000.0,0034.19,0007.66,0004.65
2024-06-14 07:13:00,SystemResetWarning,0834.4,4.99,000.00,030.0,029.6,000.0,038.0,031.9,031.0,0000.0,0034.02,0007.65,0004.66
2024-06-14 07:14:00,SystemResetWarning,0834.4,5.01,000.00,030.1,029.6,000.0,038.1,031.9,031.0,0000.0,0034.14,0007.68,0004.66
2024-06-14 07:15:00,SystemResetWarning,0834.4,5.00,000.00,030.1,029.6,000.0,038.1,031.9,031.0,0000.0,0034.46,0007.73,0004.66
2024-06-14 07:16:00,SystemResetWarning,0834.4,4.99,000.00,029.9,027.7,000.0,038.2,030.9,031.4,0000.0,0034.01,0007.73,0004.67
2024-06-14 07:17:00,SystemResetWarning,0834.6,5.02,000.00,029.5,026.3,000.0,038.2,030.3,032.2,0000.0,0034.35,0007.70,0004.67
2024-06-14 07:18:00,SystemResetWarning,0834.4,5.01,000.00,029.3,026.5,000.0,038.1,030.2,032.6,0000.0,0034.03,0007.68,0004.68
2024-06-14 07:19:00,SystemResetWarning,0834.4,4.99,000.00,029.3,026.9,000.0,038.0,030.4,032.8,0000.0,0033.30,0007.70,0004.68
2024-06-14 07:20:00,SystemResetWarning,0834.4,5.00,000.00,029.3,027.3,000.0,037.9,030.7,032.9,0000.0,0033.07,0007.72,0004.69
2024-06-14 07:21:00,SystemResetWarning,0834.4,5.00,000.00,029.3,027.7,000.0,037.9,030.9,033.0,0000.0,0032.65,0007.75,0004.70
2024-06-14 07:22:00,SystemResetWarning,0834.5,5.00,000.00,029.4,028.0,000.0,037.9,031.0,032.9,0000.0,0032.04,0007.80,0004.72
2024-06-14 07:23:00,SystemResetWarning,0834.5,5.00,000.00,029.4,028.3,000.0,037.8,031.1,032.9,0000.0,0031.68,0007.73,0004.74
2024-06-14 07:24:00,SystemResetWarning,0834.5,5.00,000.00,029.5,028.5,000.0,037.8,031.2,032.7,0000.0,0031.53,0007.75,0004.75
2024-06-14 07:25:00,SystemResetWarning,0834.5,5.00,000.00,029.5,028.7,000.0,037.8,031.3,032.7,0000.0,0031.22,0007.72,0004.76
2024-06-14 07:26:00,SystemResetWarning,0834.5,5.00,000.00,029.6,028.9,000.0,037.8,031.4,032.8,0000.0,0029.62,0007.76,0004.78
2024-06-14 07:27:00,SystemResetWarning,0834.5,5.01,000.00,029.7,029.0,000.0,037.9,031.4,032.8,0000.0,0028.82,0007.77,0004.80
2024-06-14 07:28:00,SystemResetWarning,0834.5,5.00,000.00,029.7,029.1,000.0,037.9,031.5,032.6,0000.0,0029.62,0007.80,0004.83
2024-06-14 07:29:00,SystemResetWarning,0834.5,5.00,000.00,029.8,029.2,000.0,037.9,031.6,032.5,0000.0,0030.74,0007.84,0004.86
2024-06-14 07:30:00,SystemResetWarning,0834.7,5.00,000.00,029.8,029.3,000.0,037.9,031.7,032.5,0000.0,0033.09,0007.84,0004.89
2024-06-14 07:31:00,SystemResetWarning,0835.1,5.00,000.00,029.9,029.4,000.0,038.0,031.7,032.5,0000.0,0034.01,0007.93,0004.92
2024-06-14 07:32:00,SystemResetWarning,0835.0,5.00,000.00,029.9,029.5,000.0,038.0,031.8,032.3,0000.0,0034.45,0007.96,0004.94
2024-06-14 07:33:00,SystemResetWarning,0835.1,5.00,000.00,030.0,029.6,000.0,038.1,031.8,032.2,0000.0,0035.84,0007.99,0004.96
2024-06-14 07:34:00,SystemResetWarning,0835.1,5.00,000.00,030.0,029.6,000.0,038.1,031.8,032.2,0000.0,0036.91,0008.06,0004.98
2024-06-14 07:35:00,SystemResetWarning,0835.0,5.00,000.00,030.1,029.7,000.0,038.1,031.9,032.1,0000.0,0037.38,0008.11,0005.00
2024-06-14 07:36:00,SystemResetWarning,0835.1,5.00,000.00,030.1,029.7,000.0,038.2,031.9,032.0,0000.0,0037.93,0008.12,0005.03
2024-06-14 07:37:00,SystemResetWarning,0835.1,5.00,000.00,030.2,029.8,000.0,038.2,032.0,031.9,0000.0,0039.20,0008.16,0005.04
2024-06-14 07:38:00,SystemResetWarning,0834.8,5.01,000.00,030.2,029.8,000.0,038.3,032.0,031.9,0000.0,0041.58,0008.22,0005.05
2024-06-14 07:39:00,SystemResetWarning,0834.8,4.99,000.00,030.2,029.0,000.0,038.3,031.6,032.0,0000.0,0043.03,0008.30,0005.06
2024-06-14 07:40:00,SystemResetWarning,0834.8,5.01,000.00,029.8,026.8,000.0,038.4,030.6,032.6,0000.0,0043.60,0008.36,0005.07
2024-06-14 07:41:00,SystemResetWarning,0834.9,5.01,000.00,029.5,026.4,000.0,038.4,030.3,033.2,0000.0,0041.72,0008.44,0005.08
2024-06-14 07:42:00,SystemResetWarning,0834.7,4.99,000.00,029.4,026.7,000.0,038.2,030.5,033.4,0000.0,0040.53,0008.50,0005.08
2024-06-14 07:43:00,SystemResetWarning,0834.7,5.00,000.00,029.4,027.2,000.0,038.1,030.7,033.5,0000.0,0040.03,0008.48,0005.09
2024-06-14 07:44:00,SystemResetWarning,0834.7,5.00,000.00,029.4,027.6,000.0,038.1,030.9,033.5,0000.0,0040.45,0008.58,0005.10
2024-06-14 07:45:00,SystemResetWarning,0835.1,4.99,000.00,029.5,027.9,000.0,038.0,031.0,033.4,0000.0,0040.71,0008.56,0005.10
2024-06-14 07:46:00,SystemResetWarning,0835.1,5.00,000.00,029.5,028.2,000.0,038.0,031.2,033.3,0000.0,0040.95,0008.53,0005.11
2024-06-14 07:47:00,SystemResetWarning,0835.0,5.01,000.00,029.6,028.5,000.0,038.0,031.3,033.2,0000.0,0040.81,0008.53,0005.12
2024-06-14 07:48:00,SystemResetWarning,0835.1,5.00,000.00,029.6,028.7,000.0,038.0,031.3,033.1,0000.0,0040.72,0008.51,0005.13
2024-06-14 07:49:00,SystemResetWarning,0835.2,4.99,000.00,029.7,028.8,000.0,038.0,031.4,033.0,0000.0,0039.50,0008.42,0005.11
2024-06-14 07:50:00,SystemResetWarning,0835.0,4.99,000.00,029.7,029.0,000.0,038.0,031.5,033.0,0000.0,0036.91,0008.34,0005.09
2024-06-14 07:51:00,SystemResetWarning,0834.9,4.99,000.00,029.8,029.1,000.0,038.0,031.6,032.9,0000.0,0035.55,0008.33,0005.09
2024-06-14 07:52:00,SystemResetWarning,0834.8,5.00,000.00,029.8,029.2,000.0,038.0,031.6,032.8,0000.0,0035.07,0008.31,0005.08
2024-06-14 07:53:00,SystemResetWarning,0834.7,5.01,000.00,029.9,029.3,000.0,038.0,031.7,032.7,0000.0,0035.38,0008.26,0005.09
2024-06-14 07:54:00,SystemResetWarning,0834.6,5.00,000.00,029.9,029.4,000.0,038.1,031.7,032.7,0000.0,0035.08,0008.29,0005.09
2024-06-14 07:55:00,SystemResetWarning,0834.6,5.00,000.00,030.0,029.5,000.0,038.1,031.8,032.6,0000.0,0035.36,0008.20,0005.10
2024-06-14 07:56:00,SystemResetWarning,0834.6,5.00,000.00,030.0,029.6,000.0,038.1,031.9,032.5,0000.0,0035.42,0008.21,0005.10
2024-06-14 07:57:00,SystemResetWarning,0834.8,5.00,000.00,030.1,029.6,000.0,038.2,031.9,032.4,0000.0,0035.08,0008.30,0005.09
2024-06-14 07:58:00,SystemResetWarning,0834.8,5.00,000.00,030.1,029.7,000.0,038.2,031.9,032.3,0000.0,0035.36,0008.39,0005.09
2024-06-14 07:59:00,SystemResetWarning,0835.0,4.99,000.00,030.2,029.8,000.0,038.3,032.0,032.3,0000.0,0034.98,0008.40,0005.10
